Date String (YYYY-MM-DD hh:mm:ss) UTC,Instrument flags,Ambient pressure (hPa),Sample flow (lpm),Bypass flow (lpm),Sample temperature (°C),Ambient temperature (°C),ASC tube jacket temperature (°C),LED temperature (°C),Box temperature (°C),Sample RH (%),Span deviation,Mass concentration (μg/m³),Mass concentration (μg/m³),Mass concentration (μg/m³)
DateTimeUTC,F1_M11,P_M11,Q1_M11,Q2_M11,T1_M11,T2_M11,T3_M11,T4_M11,T5_M11,U1_M11,ZSPAN_M11,X0_M11,X2_M11,X1_M11
2022-04-24 01:00:00,,0818.9,5.00,0.00,23.4,22.5,00.0,32.4,25.2,10.5,0000.0,0002.56,0000.57,0000.39
2022-04-24 01:01:00,,0819.0,5.00,0.00,23.4,22.5,00.0,32.4,25.2,10.5,0000.0,0002.57,0000.58,0000.38
2022-04-24 01:02:00,,0819.0,5.01,0.00,23.4,22.4,00.0,32.4,25.1,10.4,0000.0,0002.55,0000.57,0000.38
2022-04-24 01:03:00,,0818.9,5.00,0.00,23.4,22.4,00.0,32.4,25.2,10.4,0000.0,0002.60,0000.58,0000.38
2022-04-24 01:04:00,,0819.0,5.00,0.00,23.4,22.4,00.0,32.4,25.2,10.4,0000.0,0002.54,0000.59,0000.38
2022-04-24 01:05:00,,0818.9,5.00,0.00,23.4,22.4,00.0,32.4,25.2,10.4,0000.0,0002.32,0000.59,0000.38
2022-04-24 01:06:00,,0819.0,5.01,0.00,23.4,22.4,00.0,32.4,25.1,10.4,0000.0,0002.22,0000.55,0000.38
2022-04-24 01:07:00,,0818.9,5.01,0.00,23.4,22.4,00.0,32.4,25.1,10.4,0000.0,0002.22,0000.55,0000.38
2022-04-24 01:08:00,,0818.9,5.00,0.00,23.4,22.5,00.0,32.4,25.1,10.4,0000.0,0000.92,0000.54,0000.38
2022-04-24 01:09:00,,0818.9,5.00,0.00,23.4,22.5,00.0,32.4,25.1,10.4,0000.0,0000.90,0000.54,0000.37
2022-04-24 01:10:00,,0818.9,5.00,0.00,23.4,22.4,00.0,32.4,25.1,10.3,0000.0,0000.94,0000.55,0000.37
2022-04-24 01:11:00,,0818.9,5.00,0.00,23.4,22.4,00.0,32.4,25.1,10.3,0000.0,0001.00,0000.57,0000.38
2022-04-24 01:12:00,,0819.0,5.00,0.00,23.4,22.4,00.0,32.4,25.1,10.4,0000.0,0001.12,0000.57,0000.38
2022-04-24 01:13:00,,0818.9,5.00,0.00,23.4,22.4,00.0,32.4,25.1,10.4,0000.0,0001.26,0000.58,0000.38
2022-04-24 01:14:00,,0819.0,5.01,0.00,23.4,22.4,00.0,32.4,25.1,10.4,0000.0,0001.24,0000.58,0000.38
2022-04-24 01:15:00,,0819.0,5.00,0.00,23.3,22.4,00.0,32.4,25.1,10.4,0000.0,0001.23,0000.58,0000.38
2022-04-24 01:16:00,,0819.0,5.01,0.00,23.3,22.4,00.0,32.4,25.1,10.5,0000.0,0001.20,0000.57,0000.38
2022-04-24 01:17:00,,0819.0,4.99,0.00,23.3,22.4,00.0,32.3,25.0,10.7,0000.0,0001.23,0000.60,0000.39
2022-04-24 01:18:00,,0819.0,4.99,0.00,23.3,22.4,00.0,32.3,25.1,10.7,0000.0,0001.25,0000.61,0000.40
2022-04-24 01:19:00,,0819.0,5.00,0.00,23.3,22.4,00.0,32.3,25.1,10.8,0000.0,0001.27,0000.62,0000.40
2022-04-24 01:20:00,,0819.0,5.01,0.00,23.3,22.4,00.0,32.3,25.0,10.8,0000.0,0001.26,0000.62,0000.41
2022-04-24 01:21:00,,0819.0,4.99,0.00,23.3,22.4,00.0,32.3,25.1,10.8,0000.0,0001.29,0000.62,0000.42
2022-04-24 01:22:00,,0819.0,4.99,0.00,23.3,22.4,00.0,32.3,25.0,10.7,0000.0,0001.20,0000.60,0000.43
2022-04-24 01:23:00,,0819.0,4.99,0.00,23.3,22.4,00.0,32.3,25.1,10.8,0000.0,0001.10,0000.59,0000.43
2022-04-24 01:24:00,,0819.1,4.99,0.00,23.3,22.4,00.0,32.3,25.0,10.8,0000.0,0000.98,0000.60,0000.44
2022-04-24 01:25:00,,0819.1,5.01,0.00,23.3,22.4,00.0,32.3,25.0,10.7,0000.0,0000.99,0000.61,0000.45
2022-04-24 01:26:00,,0819.1,5.01,0.00,23.3,22.4,00.0,32.3,24.9,10.6,0000.0,0001.10,0000.62,0000.45
2022-04-24 01:27:00,,0819.0,5.01,0.00,23.3,22.3,00.0,32.3,24.9,10.4,0000.0,0001.17,0000.65,0000.46
2022-04-24 01:28:00,,0819.2,5.00,0.00,23.3,22.3,00.0,32.3,25.0,10.4,0000.0,0001.15,0000.64,0000.46
2022-04-24 01:29:00,,0819.2,4.99,0.00,23.3,22.3,00.0,32.3,25.0,10.5,0000.0,0001.14,0000.63,0000.45
2022-04-24 01:30:00,,0819.3,4.99,0.00,23.3,22.3,00.0,32.3,25.0,10.6,0000.0,0001.13,0000.62,0000.45
2022-04-24 01:31:00,,0819.3,4.99,0.00,23.3,22.3,00.0,32.3,24.9,10.7,0000.0,0001.20,0000.62,0000.45
2022-04-24 01:32:00,,0819.3,5.01,0.00,23.3,22.3,00.0,32.3,25.0,10.7,0000.0,0001.10,0000.60,0000.44
2022-04-24 01:33:00,,0819.2,4.99,0.00,23.3,22.3,00.0,32.3,24.9,10.6,0000.0,0001.08,0000.59,0000.44
2022-04-24 01:34:00,,0819.2,4.99,0.00,23.3,22.2,00.0,32.3,24.9,10.5,0000.0,0001.12,0000.60,0000.44
2022-04-24 01:35:00,,0819.2,5.02,0.00,23.3,22.2,00.0,32.3,25.0,10.5,0000.0,0001.16,0000.61,0000.44
2022-04-24 01:36:00,,0819.2,5.00,0.00,23.3,22.2,00.0,32.3,25.0,10.6,0000.0,0001.22,0000.64,0000.44
2022-04-24 01:37:00,,0819.2,4.99,0.00,23.3,22.3,00.0,32.3,24.9,10.7,0000.0,0001.15,0000.63,0000.44
2022-04-24 01:38:00,,0819.2,5.00,0.00,23.3,22.2,00.0,32.3,24.9,10.7,0000.0,0001.07,0000.61,0000.44
2022-04-24 01:39:00,,0819.3,4.99,0.00,23.3,22.2,00.0,32.3,24.9,10.6,0000.0,0001.08,0000.61,0000.44
2022-04-24 01:40:00,,0819.3,5.01,0.00,23.3,22.2,00.0,32.3,24.9,10.7,0000.0,0001.13,0000.62,0000.44
2022-04-24 01:41:00,,0819.3,4.99,0.00,23.3,22.2,00.0,32.3,25.0,10.6,0000.0,0001.13,0000.62,0000.45
2022-04-24 01:42:00,,0819.3,5.00,0.00,23.3,22.3,00.0,32.3,24.9,10.6,0000.0,0001.06,0000.62,0000.45
2022-04-24 01:43:00,,0819.3,5.00,0.00,23.2,22.3,00.0,32.3,24.9,10.7,0000.0,0001.07,0000.62,0000.45
2022-04-24 01:44:00,,0819.4,4.99,0.00,23.3,22.2,00.0,32.3,24.9,10.7,0000.0,0001.26,0000.65,0000.46
2022-04-24 01:45:00,,0819.4,4.99,0.00,23.3,22.2,00.0,32.3,25.0,10.7,0000.0,0001.30,0000.67,0000.46
2022-04-24 01:46:00,,0819.3,5.02,0.00,23.3,22.2,00.0,32.3,25.0,10.6,0000.0,0001.25,0000.66,0000.46
2022-04-24 01:47:00,,0819.4,4.99,0.00,23.3,22.2,00.0,32.2,25.0,10.8,0000.0,0001.23,0000.63,0000.46
2022-04-24 01:48:00,,0819.5,4.99,0.00,23.2,22.2,00.0,32.2,25.0,10.9,0000.0,0001.29,0000.64,0000.47
2022-04-24 01:49:00,,0819.5,5.01,0.00,23.2,22.2,00.0,32.2,25.0,10.9,0000.0,0001.31,0000.65,0000.48
2022-04-24 01:50:00,,0819.6,5.01,0.00,23.2,22.2,00.0,32.2,25.0,11.1,0000.0,0001.40,0000.66,0000.48
2022-04-24 01:51:00,,0819.7,4.99,0.00,23.2,22.2,00.0,32.2,24.9,11.2,0000.0,0001.35,0000.66,0000.47
2022-04-24 01:52:00,,0819.8,5.00,0.00,23.2,22.2,00.0,32.2,24.9,11.1,0000.0,0001.33,0000.65,0000.47
2022-04-24 01:53:00,,0819.7,5.02,0.00,23.2,22.2,00.0,32.2,24.9,11.2,0000.0,0001.32,0000.64,0000.47
2022-04-24 01:54:00,,0819.8,4.99,0.00,23.2,22.2,00.0,32.2,24.9,11.2,0000.0,0001.31,0000.64,0000.47
2022-04-24 01:55:00,,0819.8,5.00,0.00,23.2,22.2,00.0,32.2,24.9,11.2,0000.0,0001.15,0000.63,0000.46
2022-04-24 01:56:00,,0819.9,4.99,0.00,23.2,22.1,00.0,32.2,24.9,11.2,0000.0,0001.12,0000.62,0000.46
2022-04-24 01:57:00,,0819.9,4.99,0.00,23.2,22.1,00.0,32.2,24.9,11.2,0000.0,0001.20,0000.63,0000.46
2022-04-24 01:58:00,,0819.9,5.01,0.00,23.2,22.1,00.0,32.2,24.9,11.3,0000.0,0001.20,0000.63,0000.46
2022-04-24 01:59:00,,0819.7,5.00,0.00,23.2,22.1,00.0,32.2,24.9,11.3,0000.0,0001.03,0000.61,0000.45
